This demonstration page uses our WeatherBlox Daily Observations layout. Learn more.

Left ArrowRight Arrow

Hourly Observations for August 31, 2016

Temp ( °F °C ) Dew Point ( °F °C ) Humidity (%) Winds ( mph kmh ) Pressure ( in mb ) Visibility ( mi km ) Precip ( " mm )
12:51 am 00:51 Clear 78 25.6 56 13.3 47 47 E 12 19 29.89 1012 10 16 0.00 0.00
1:51 am 01:51 Clear 77 25 57 13.9 50 50 E 12 19 29.89 1012 10 16 0.00 0.00
2:51 am 02:51 Clear 76 24.4 59 15 56 56 E 12 19 29.89 1012 10 16 0.00 0.00
3:51 am 03:51 Clear 74 23.3 59 15 60 60 E 8 13 29.90 1013 10 16 0.00 0.00
4:51 am 04:51 Clear 74 23.3 59 15 60 60 ESE 7 11 29.91 1013 10 16 0.00 0.00
5:51 am 05:51 Clear 72 22.2 58 14.4 61 61 ESE 6 9 29.93 1014 10 16 0.00 0.00
6:51 am 06:51 Sunny 74 23.3 57 13.9 56 56 SE 9 15 29.95 1014 10 16 0.00 0.00
7:51 am 07:51 Sunny 78 25.6 59 15 52 52 ESE 12 19 29.96 1014 10 16 0.00 0.00
8:51 am 08:51 Mostly Sunny 80 26.7 59 15 49 49 SE 14 22 29.96 1014 10 16 0.00 0.00
9:51 am 09:51 Partly Cloudy 84 28.9 59 15 43 43 SSE 12 19 29.94 1014 10 16 0.00 0.00
10:51 am 10:51 Partly Cloudy 85 29.4 58 14.4 40 40 SE 13 20 29.93 1014 10 16 0.00 0.00
11:51 am 11:51 Sunny 87 30.6 58 14.4 37 37 SSE 13 20 29.90 1013 10 16 0.00 0.00
12:51 pm 12:51 Mostly Sunny 91 32.8 58 14.4 33 33 ESE 9 15 29.87 1012 10 16 0.00 0.00
1:51 pm 13:51 Mostly Sunny 92 33.3 56 13.3 30 30 ESE 10 17 29.83 1010 10 16 0.00 0.00
2:51 pm 14:51 Mostly Sunny 91 32.8 57 13.9 32 32 SE 12 19 29.81 1010 10 16 0.00 0.00
3:51 pm 15:51 Mostly Cloudy 93 33.9 56 13.3 29 29 S 14 22 29.80 1009 10 16 0.00 0.00
4:49 pm 16:49 Partly Cloudy with Nearby Thunderstorms 84 29 61 16 45 45 SSE 26 43 29.77 1008 10 16 0.00 0.00
4:51 pm 16:51 Partly Cloudy with Nearby Thunderstorms 85 29.4 61 16.1 45 45 SSE 21 33 29.83 1010 10 16 0.00 0.00
5:04 pm 17:04 Mostly Sunny 84 28.9 61 16.1 46 46 S 17 28 29.77 1008 10 16 0.00 0.00
5:51 pm 17:51 Sunny 84 28.9 60 15.6 44 44 SSE 17 28 29.84 1011 10 16 0.00 0.00
6:51 pm 18:51 Clear 83 28.3 58 14.4 43 43 S 12 19 29.86 1011 10 16 0.00 0.00
7:51 pm 19:51 Clear 81 27.2 59 15 47 47 SSE 7 11 29.88 1012 10 16 0.00 0.00
8:51 pm 20:51 Clear 80 26.7 60 15.6 51 51 ESE 5 7 29.90 1013 10 16 0.00 0.00
9:51 pm 21:51 Clear 80 26.7 60 15.6 51 51 SSE 7 11 29.90 1012 10 16 0.00 0.00
10:51 pm 22:51 Clear 79 26.1 60 15.6 52 52 SSE 6 9 29.89 1012 10 16 0.00 0.00
11:51 pm 23:51 Clear 79 26.1 61 16.1 54 54 S 7 11 29.89 1012 10 16 0.00 0.00

Powered by AerisWeather